www.pogodaiklimat.ru

Погода и климат >> Архив погоды >> Мексика >> Merida


АРХИВ ПОГОДЫ в Merida

Время (UTC), дата Ветер
(напр.,м/с)
 
Видим.   Явления Облачность Т
(С)
Тd
(С)
f
(%)
Тe
(С)
Тes
(С)
Комфортность P
(гПа)
Po
(гПа)
Тmin
(С)
Tmax
(С)
R
(мм)
R24
(мм)
S
(см)
09 13.10 В 2 5000 м {морось} 8/8 600 м
[]
+25.7 +24.8 95 +36 +36 очень
душно
1010.8 1009.5 1
12 13.10 В 1 10 км 6/3 600 м
[Cu hum Ac trans Ci fib]
+25.0 +24.7 98 +35 +35 очень
душно
1011.2 1009.9 +24.6 +34.0
15 13.10 В 2 10 км 5/5 600 м
[Cu hum]
+29.3 +27.2 88 +46 +50 опасность
перегрева
1012.4 1011.1
18 13.10 В 2 10 км 6/6 600 м
[Cu hum]
+32.4 +25.7 68 +48 +54 опасность
перегрева
1010.5 1009.3 +24.5 +32.8
21 13.10 ЮВ 2 10 км 6/5 600 м
[Cu hum Ci fib]
+33.4 +27.3 70 +52 +56 опасность
перегрева
1008.2 1006.9
00 14.10 СВ 3 10 км 3/3 600 м
[Cu hum]
+30.0 +25.8 78 +45 +45 опасность
перегрева
1008.8 1007.5 +24.5 +33.9
03 14.10 В 3 5000 м ясно +27.3 +24.6 85 +39 +39 очень
душно
1011.2 1010.0
06 14.10 В 3 5000 м 4/4 600 м
[Sc diur, vesp]
+26.8 +25.2 91 +39 +39 очень
душно
1011.4 1010.1 +33.9
09 14.10 В 2 5000 м 1/1 600 м
[Cu hum]
+25.6 +24.7 95 +36 +36 очень
душно
1010.7 1009.4
12 14.10 В 1 10 км 10/10 600 м
[Sc]
+24.8 +23.9 95 +34 +34 очень
душно
1011.4 1010.2 +23.7 +33.9
15 14.10 В 2 10 км 6/6 600 м
[Cu hum]
+29.3 +26.1 83 +44 +47 опасность
перегрева
1013.3 1012.1
18 14.10 В 3 10 км 6/6 600 м
[Cu hum]
+32.9 +26.9 71 +51 +56 опасность
перегрева
1011.8 1010.6 +23.7 +32.9
21 14.10 В 3 10 км 4/4 600 м
[Cu hum]
+34.4 +27.3 67 +53 +57 опасность
перегрева
1009.8 1008.5
00 15.10 СВ 2 10 км 8/0
[]
+30.4 +25.7 76 +45 +45 опасность
перегрева
1010.2 1009.0
03 15.10 ЮВ 4 5000 м 4/4 600 м
[Cu hum]
+28.5 +25.3 83 +42 +42 опасность
перегрева
1012.7 1011.4
12 15.10 В 2 10 км 1/1 600 м
[Cu hum]
+25.2 +24.9 98 +36 +36 очень
душно
1012.6 1011.3 +24.8 +34.4
15 15.10 В 3 10 км 6/6 600 м
[Cu hum]
+29.8 +26.6 83 +46 +49 опасность
перегрева
1014.1 1012.8
18 15.10 В 3 10 км 6/6 600 м
[Cu hum]
+32.9 +26.6 70 +50 +56 опасность
перегрева
1012.3 1011.1 +24.8 +33.7
21 15.10 ЮВ 3 10 км 5/5 600 м
[Cu hum]
+34.6 +26.1 61 +50 +53 опасность
перегрева
1010.3 1009.0
00 16.10 В 2 10 км 6/4 600 м
[Cu hum Ac trans]
+29.0 +24.0 74 +40 +40 очень
душно
1011.1 1009.8 +24.8 +35.2
03 16.10 ЮВ 3 5000 м ясно +27.8 +24.1 80 +39 +39 очень
душно
1013.2 1011.9
06 16.10 В 2 5000 м ясно +25.9 +24.6 93 +37 +37 очень
душно
1012.6 1011.3 +24.8 +35.2
09 16.10 В 2 5000 м 1/1 600 м
[Cu hum]
+25.5 +25.1 98 +37 +37 очень
душно
1015.6 1010.3
12 16.10 В 2 10 км 5/3 600 м
[Cu med, cong Ac trans Ci fib]
+25.3 +24.6 96 +36 +36 очень
душно
1012.6 1011.3 +25.0 +35.2
15 16.10 СВ 3 10 км 6/5 600 м
[Sc Ac trans]
+29.3 +26.4 84 +45 +47 опасность
перегрева
1013.9 1012.7
18 16.10 В 4 10 км 6/5 600 м
[Cu hum Ac trans]
+32.6 +26.4 70 +49 +54 опасность
перегрева
1012.1 1010.8 +25.0 +33.7
21 16.10 ЮВ 3 10 км 8/4 600 м
[Cu hum Ac trans Ci fib]
+31.9 +26.8 74 +49 +51 опасность
перегрева
1010.3 1009.1
00 17.10 СВ 2 5000 м 8/3 600 м
[Cu hum Cs]
+29.0 +25.1 80 +42 +42 опасность
перегрева
1011.4 1010.1 +25.0 +34.1
03 17.10 В 3 5000 м ясно +26.6 +24.9 90 +38 +38 очень
душно
1013.3 1012.0
06 17.10 ЮВ 3 5000 м ясно +26.1 +24.5 91 +37 +37 очень
душно
1012.7 1011.4 +34.1
09 17.10 В 2 5000 м 1/1 600 м
[Cu hum]
+25.2 +23.9 93 +35 +35 очень
душно
1012.1 1010.9
12 17.10 ЮВ 2 10 км 6/1 600 м
[Cu hum Cs]
+24.9 +24.2 96 +34 +34 очень
душно
1013.5 1012.2 +24.7 +34.1
15 17.10 В 4 10 км 8/5 600 м
[Cu hum Ci fib]
+30.0 +26.6 82 +46 +49 опасность
перегрева
1014.9 1013.6
18 17.10 В 4 10 км 6/5 600 м
[Cu hum Ci fib]
+33.5 +26.8 68 +51 +56 опасность
перегрева
1013.3 1012.0 +24.6 +34.6
21 17.10 ЮВ 3 10 км 6/4 600 м
[Cu hum Ac trans Ci fib]
+34.5 +26.1 62 +51 +54 опасность
перегрева
1011.1 1009.8
00 18.10 СВ 4 10 км дождь 8/8 600 м
[Sc]
+28.0 +25.2 85 +41 +41 опасность
перегрева
1012.5 1011.3 8
03 18.10 В 1 5000 м ясно +26.5 +26.1 98 +40 +40 очень
душно
1014.7 1013.4
06 18.10 В 2 5000 м ясно +25.8 +24.5 93 +36 +36 очень
душно
1015.1 1013.8 +35.2
09 18.10 В 3 5000 м ясно +24.9 +23.7 93 +34 +34 очень
душно
1013.4 1012.1
12 18.10 В 2 10 км 3/1 600 м
[Cu med, cong Ac trans]
+24.4 +23.8 96 +33 +33 очень
душно
1014.7 1013.4 +24.2 +35.2
15 18.10 В 4 10 км 3/3 600 м
[Cu hum]
+29.3 +26.1 83 +44 +48 опасность
перегрева
1016.1 1014.8
18 18.10 ЮВ 4 10 км 8/4 600 м
[Cu hum Ac trans Ci fib]
+32.6 +26.0 68 +48 +52 опасность
перегрева
1014.8 1013.5 +24.2 +33.1
21 18.10 В 3 10 км 8/4 600 м
[Cu med, cong Ac trans Ci fib]
+28.8 +25.1 80 +42 +44 опасность
перегрева
1013.5 1012.2
03 19.10 В 2 5000 м 4/0 2000 м
[Ac trans]
+24.0 +23.0 94 +32 +32 очень
душно
1016.2 1014.9
06 19.10 В 2 5000 м 3/1 600 м
[Cu hum Ac trans]
+23.7 +22.7 94 +31 +31 очень
душно
1016.1 1014.8 +34.1
09 19.10 В 2 5000 м 4/0 2000 м
[Ac trans]
+23.9 +22.6 92 +31 +31 очень
душно
1015.1 1013.9
12 19.10 В 2 10 км 8/0 2000 м
[Ac trans Ci fib]
+24.2 +23.0 93 +32 +32 очень
душно
1015.2 1014.0 +23.1 +34.1
15 19.10 В 2 10 км 6/4 600 м
[Cu med, cong Ac trans Ci fib]
+28.7 +26.4 87 +44 +47 опасность
перегрева
1016.7 1015.4
18 19.10 В 4 10 км 6/5 600 м
[Cu hum Ac trans]
+32.1 +26.6 73 +49 +54 опасность
перегрева
1015.0 1013.8 +23.1 +33.0
21 19.10 В 6 10 км {морось} 8/8 600 м
[Sc]
+29.9 +25.9 79 +45 +45 опасность
перегрева
1013.0 1011.8 0.4
00 20.10 С 1 5000 м в посл. час морось 8/8 600 м
[Sc]
+25.4 +24.8 96 +36 +36 очень
душно
1013.2 1011.9 5
06 20.10 В 2 5000 м 3/3 600 м
[Sc diur, vesp]
+25.3 +24.7 96 +36 +36 очень
душно
1015.1 1013.8 +34.9

 

Местоположение метеостанции Merida (Мексика): широта 20.98 долгота -89.65 высота над уровнем моря 9 м.

В архиве по умолчанию представлена погода в Merida за последнюю неделю. Архивные данные за месяц целиком и за предыдущие месяцы, начиная с января 2011 года, Вы можете получить, выбрав интересующий диапазон дат из раскрывающегося списка и нажав кнопку "Ввод!".


*Определитесь, кто Вы:
робот инопланетянин человек

Внимание! Время в таблицах - всемирное. Для получения местного времени необходимо прибавить поправку, которая в Merida равна -6 ч.

Смотрите также архив погоды в соседних городах и на ближайших метеорологических станциях:

Погода в Merida 2 (Мексика) (6 км)
Погода в Progreso (Мексика) (36 км)
Погода в Valladolid (Мексика) (154 км)
Погода в Campeche (Мексика) (157 км)
Погода в Felipe Carrillo Puerto (Мексика) (231 км)
Погода в Chetumal (Мексика) (312 км)
Погода в Belize (Белиз) (409 км)
Погода в Flores (Гватемала) (452 км)
Погода в Villahermosa (Мексика) (479 км)
Погода в Cabo San Antonio (Куба) (497 км)

Пояснения к столбцам:

Ветер - указаны скорость ветра в м/с - средняя за 10 мин, порывы в срок и между сроками (в фигурных скобках) и направление, откуда дует ветер: С - северный, СВ - северо-восточный, В - восточный, ЮВ - юго-восточный, Ю - южный, ЮЗ - юго-западный, З - западный, СЗ - северо-западный.
Видимость - горизонтальная дальность видимости в метрах или километрах. При видимости от 1 до 10 км при отсутствии осадков обычно наблюдается дымка, при ухудшении видимости до 1 км и менее - туман. В сухую погоду видимость может ухудшаться дымом, пылью или мглою.
Явления - указаны атмосферные явления, наблюдавшиеся в срок или в последний час перед сроком; фигурными скобками обозначены явления, наблюдавшиеся между сроками (за 1-3 часа до срока); квадратными скобками обозначены град или гололедные отложения с указанием их диаметра в мм.
Облачность - указаны через наклонную черту общая и нижняя облачность в баллах и высота нижней границы облаков в метрах; квадратными скобками обозначены формы облаков: Ci - перистые, Cs - перисто-слоистые, Cc - перисто-кучевые, Ac - высококучевые, As - высокослоистые, Sc - слоисто-кучевые, Ns - слоисто-дождевые, Cu - кучевые, Cb - кучево-дождевые. Подробнее классификацию облаков см. в Атласе облаков (PDF).
T - Температура воздуха - температура, измеренная на высоте 2 м над землей.
Td - Температура точки росы - температура, при понижении до которой содержащийся в воздухе водяной пар достигнет насыщения.
f - Относительная влажность воздуха - влажноcть воздуха, измеренная на высоте 2 м над землей.
Te - Эффективная температура - температура, которую ощущает одетый по сезону человек в тени. Характеристика душности погоды. При расчете учитывается влияние влажности воздуха и скорости ветра на теплоощущения человека.
Tes - Эффективная температура на солнце - температура, которую ощущает человек, с поправкой на солнечный нагрев. Характеристика знойности погоды. Зависит от высоты солнца над горизонтом, облачности и скорости ветра. Ночью, в пасмурную погоду, а также при ветре 12 м/с и более поправка равна нулю.
P - Атмосферное давление - приведенное к уровню моря атмосферное давление.
Po - Атмосферное давление - измеренное на уровне метеостанции атмосферное давление.
Tmin - Минимальная температура - минимум температуры воздуха на высоте 2 м над землей.
Tmax - Максимальная температура - максимум температуры воздуха на высоте 2 м над землей.
R - Количество осадков - Количество выпавших осадков за период времени, мм. При наведении курсора мыши на число - период времени, за который выпало указанное количество осадков.
R24 - Количество осадков - Количество выпавших осадков за 24 часа, мм.
S - Снежный покров - Высота снежного покрова, см. При наведении курсора мыши на число - состояние снежного покрова и степень покрытия местности в баллах.